Location: Brno
(49.2000°N, 16.6330°E)
Time: 11:11:26
(UTC+02:00)

Vanguard 3 - Pass Details

Date: 29 July 2021
Orbit: 510 x 3260 km, 33.3° (Epoch: 18 September)

Event Time Altitude Azimuth Distance (km) Brightness Sun altitude
Rises 21:34:36 0° 253° (WSW) 6,550 12.2 -8.4°
Reaches altitude 10° 21:38:50 10° 248° (WSW) 5,783 11.8 -8.9°
Maximum altitude 21:56:22 48° 182° (S) 3,901 10.3 -11.0°
Drops below altitude 10° 22:13:18 10° 116° (ESE) 5,604 10.8 -12.8°
Enters shadow 22:13:32 - 116° (ESE) 5,645 10.9 -12.9°
